Location: Unspecified
(58.9933°N, 5.6375°E)
Time: 23:26:58
(UTC+02:00)

Resurs 1-4 Rocket - Visible Passes

Search period start: 23 August 2017 00:00
Search period end: 02 September 2017 00:00
Orbit: 799 x 815 km, 98.5° (Epoch: 23 August)

Date Brightness Start Highest point End Pass type
(mag) Time Alt. Az. Time Alt. Az. Time Alt. Az.
23 Aug 3.2 03:26:58 10° NNE 03:31:52 37° E 03:36:24 12° SSE visible
23 Aug 2.4 05:06:49 10° NNE 05:11:57 53° WNW 05:17:03 10° SW visible
24 Aug 3.8 03:02:37 10° NNE 03:07:03 26° E 03:11:26 10° SSE visible
24 Aug 2.1 04:42:10 10° NNE 04:47:26 75° WNW 04:52:31 11° SSW visible
25 Aug 4.2 02:38:29 10° NE 02:42:08 19° E 02:45:46 10° SE visible
25 Aug 2.2 04:17:33 10° NNE 04:22:51 79° ESE 04:27:34 13° SSW visible
26 Aug 4.5 02:14:50 10° NE 02:17:08 13° E 02:19:25 10° ESE visible
26 Aug 2.6 03:53:00 10° NNE 03:58:12 55° E 04:02:36 14° S visible
26 Aug 2.9 05:33:07 10° N 05:37:57 38° WNW 05:42:46 10° WSW visible
27 Aug 3.2 03:28:32 10° NNE 03:33:28 38° E 03:37:39 14° SSE visible
27 Aug 2.4 05:08:24 10° NNE 05:13:31 52° WNW 05:18:36 10° SW visible
28 Aug 3.7 03:04:10 10° NNE 03:08:39 27° E 03:12:41 12° SE visible
28 Aug 2.1 04:43:44 10° NNE 04:49:00 73° WNW 04:53:46 13° SSW visible
29 Aug 4.2 02:40:01 10° NE 02:43:44 19° E 02:47:27 10° SE visible
29 Aug 2.2 04:19:08 10° NNE 04:24:26 81° ESE 04:28:48 15° SSW visible
30 Aug 4.5 02:16:18 10° NE 02:18:44 13° E 02:21:12 10° ESE visible
30 Aug 2.6 03:54:34 10° NNE 03:59:47 57° ESE 04:03:50 17° S visible
30 Aug 2.9 05:34:41 10° N 05:39:31 37° WNW 05:44:19 10° WSW visible
31 Aug 3.1 03:30:05 10° NNE 03:35:03 40° E 03:38:52 16° SSE visible
31 Aug 2.5 05:09:58 10° NNE 05:15:05 51° WNW 05:19:57 11° SW visible
01 Sep 3.7 03:05:43 10° NNE 03:10:14 28° E 03:13:55 14° SE visible
01 Sep 2.1 04:45:19 10° NNE 04:50:35 71° WNW 04:54:59 15° SSW visible
